Year,Month,Day,Hour,Minute,Value (Times are PST for windspeed in km/hr)
2006,02,01,00,00,18.10
2006,02,01,00,01,18.70
2006,02,01,00,02,17.90
2006,02,01,00,03,21.00
2006,02,01,00,04,20.60
2006,02,01,00,05,16.30
2006,02,01,00,06,19.50
2006,02,01,00,07,19.30
2006,02,01,00,08,19.50
2006,02,01,00,09,18.60
2006,02,01,00,10,19.30
2006,02,01,00,11,13.60
2006,02,01,00,12,17.60
2006,02,01,00,13,31.20
2006,02,01,00,14,22.40
2006,02,01,00,15,28.20
2006,02,01,00,16,20.60
2006,02,01,00,17,19.00
2006,02,01,00,18,22.90
2006,02,01,00,19,18.10
2006,02,01,00,20,24.20
2006,02,01,00,21,19.20
2006,02,01,00,22,18.30
2006,02,01,00,23,14.20
2006,02,01,00,24,19.10
2006,02,01,00,25,20.20
2006,02,01,00,26,20.80
2006,02,01,00,27,15.80
2006,02,01,00,28,16.90
2006,02,01,00,29,27.30
2006,02,01,00,30,22.50
2006,02,01,00,31,21.40
2006,02,01,00,32,24.00
2006,02,01,00,33,25.30
2006,02,01,00,34,22.50
2006,02,01,00,35,21.20
2006,02,01,00,36,23.50
2006,02,01,00,37,27.00
2006,02,01,00,38,22.70
2006,02,01,00,39,27.20
2006,02,01,00,40,26.90
2006,02,01,00,41,25.20
2006,02,01,00,42,28.80
2006,02,01,00,43,20.20
2006,02,01,00,44,23.50
2006,02,01,00,45,19.60
2006,02,01,00,46,18.20
2006,02,01,00,47,36.30
2006,02,01,00,48,35.40
2006,02,01,00,49,27.20
2006,02,01,00,50,29.00
2006,02,01,00,51,26.90
2006,02,01,00,52,20.80
2006,02,01,00,53,32.40
2006,02,01,00,54,24.70
2006,02,01,00,55,30.90
2006,02,01,00,56,22.90
2006,02,01,00,57,31.70
2006,02,01,00,58,25.30
2006,02,01,00,59,23.00
2006,02,01,01,00,27.40
2006,02,01,01,01,27.40
2006,02,01,01,02,33.50
2006,02,01,01,03,31.40
2006,02,01,01,04,31.40
2006,02,01,01,05,25.70
2006,02,01,01,06,25.30
2006,02,01,01,07,31.90
2006,02,01,01,08,29.30
2006,02,01,01,09,27.80
2006,02,01,01,10,25.20
2006,02,01,01,11,13.00
2006,02,01,01,12,22.40
2006,02,01,01,13,22.20
2006,02,01,01,14,31.20
2006,02,01,01,15,35.40
2006,02,01,01,16,27.50
2006,02,01,01,17,19.10
2006,02,01,01,18,14.20
2006,02,01,01,19,25.00
2006,02,01,01,20,32.30
2006,02,01,01,21,25.60
2006,02,01,01,22,28.00
2006,02,01,01,23,25.40
2006,02,01,01,24,22.90
2006,02,01,01,25,29.50
2006,02,01,01,26,25.50
2006,02,01,01,27,23.40
2006,02,01,01,28,22.60
2006,02,01,01,29,23.60
2006,02,01,01,30,25.50
2006,02,01,01,31,21.10
2006,02,01,01,32,19.20
2006,02,01,01,33,22.60
2006,02,01,01,34,20.00
2006,02,01,01,35,27.40
2006,02,01,01,36,23.10
2006,02,01,01,37,20.90
2006,02,01,01,38,18.60
2006,02,01,01,39,23.60
2006,02,01,01,40,18.10
2006,02,01,01,41,21.20
2006,02,01,01,42,20.70
2006,02,01,01,43,15.50
2006,02,01,01,44,24.90
2006,02,01,01,45,22.10
2006,02,01,01,46,33.90
2006,02,01,01,47,36.00
2006,02,01,01,48,30.80
2006,02,01,01,49,37.00
2006,02,01,01,50,28.60
2006,02,01,01,51,37.30
2006,02,01,01,52,40.20
2006,02,01,01,53,34.10
2006,02,01,01,54,27.80
2006,02,01,01,55,37.60
2006,02,01,01,56,38.00
2006,02,01,01,57,27.90
2006,02,01,01,58,32.80
2006,02,01,01,59,25.80
2006,02,01,02,00,31.70
2006,02,01,02,01,42.50
2006,02,01,02,02,28.00
2006,02,01,02,03,27.40
2006,02,01,02,04,38.90
2006,02,01,02,05,31.40
2006,02,01,02,06,32.70
2006,02,01,02,07,26.10
2006,02,01,02,08,24.90
2006,02,01,02,09,28.20
2006,02,01,02,10,23.90
2006,02,01,02,11,25.40
2006,02,01,02,12,30.10
2006,02,01,02,13,33.00
2006,02,01,02,14,26.40
2006,02,01,02,15,25.90
2006,02,01,02,16,21.40
2006,02,01,02,17,25.10
2006,02,01,02,18,30.10
2006,02,01,02,19,25.00
2006,02,01,02,20,22.90
2006,02,01,02,21,23.80
2006,02,01,02,22,35.70
2006,02,01,02,23,22.50
2006,02,01,02,24,27.60
2006,02,01,02,25,26.60
2006,02,01,02,26,23.70
2006,02,01,02,27,26.40
2006,02,01,02,28,28.50
2006,02,01,02,29,25.10
2006,02,01,02,30,21.80
2006,02,01,02,31,36.00
2006,02,01,02,32,23.30
2006,02,01,02,33,20.20
2006,02,01,02,34,32.00
2006,02,01,02,35,25.60
2006,02,01,02,36,28.70
2006,02,01,02,37,26.60
2006,02,01,02,38,25.40
2006,02,01,02,39,19.80
2006,02,01,02,40,18.30
2006,02,01,02,41,16.70
2006,02,01,02,42,14.20
2006,02,01,02,43,9.40
2006,02,01,02,44,13.20
2006,02,01,02,45,13.40
2006,02,01,02,46,10.50
2006,02,01,02,47,17.10
2006,02,01,02,48,23.30
2006,02,01,02,49,12.70
2006,02,01,02,50,22.30
2006,02,01,02,51,23.30
2006,02,01,02,52,29.70
2006,02,01,02,53,15.80
2006,02,01,02,54,13.60
2006,02,01,02,55,28.20
2006,02,01,02,56,26.10
2006,02,01,02,57,16.10
2006,02,01,02,58,20.20
2006,02,01,02,59,24.50
2006,02,01,03,00,23.30
2006,02,01,03,01,22.80
2006,02,01,03,02,34.30
2006,02,01,03,03,33.50
2006,02,01,03,04,17.50
2006,02,01,03,05,27.50
2006,02,01,03,06,26.00
2006,02,01,03,07,16.60
2006,02,01,03,08,16.70
2006,02,01,03,09,8.10
2006,02,01,03,10,9.40
2006,02,01,03,11,15.20
2006,02,01,03,12,22.40
2006,02,01,03,13,23.00
2006,02,01,03,14,23.70
2006,02,01,03,15,18.70
2006,02,01,03,16,11.40
2006,02,01,03,17,16.80
2006,02,01,03,18,14.50
2006,02,01,03,19,17.40
2006,02,01,03,20,20.80
2006,02,01,03,21,11.30
2006,02,01,03,22,9.60
2006,02,01,03,23,8.00
2006,02,01,03,24,7.80
2006,02,01,03,25,5.70
2006,02,01,03,26,9.30
2006,02,01,03,27,19.70
2006,02,01,03,28,13.80
2006,02,01,03,29,21.20
2006,02,01,03,30,30.40
2006,02,01,03,31,30.10
2006,02,01,03,32,27.60
2006,02,01,03,33,26.20
2006,02,01,03,34,21.20
2006,02,01,03,35,20.90
2006,02,01,03,36,25.50
2006,02,01,03,37,9.80
2006,02,01,03,38,21.90
2006,02,01,03,39,34.00
2006,02,01,03,40,22.90
2006,02,01,03,41,15.80
2006,02,01,03,42,14.20
2006,02,01,03,43,5.60
2006,02,01,03,44,9.20
2006,02,01,03,45,17.50
2006,02,01,03,46,14.40
2006,02,01,03,47,19.90
2006,02,01,03,48,21.50
2006,02,01,03,49,16.60
2006,02,01,03,50,19.00
2006,02,01,03,51,27.40
2006,02,01,03,52,24.30
2006,02,01,03,53,23.90
2006,02,01,03,54,21.70
2006,02,01,03,55,25.10
2006,02,01,03,56,23.30
2006,02,01,03,57,41.10
2006,02,01,03,58,24.50
2006,02,01,03,59,29.20
2006,02,01,04,00,30.40
2006,02,01,04,01,11.20
2006,02,01,04,02,16.90
2006,02,01,04,03,27.50
2006,02,01,04,04,20.90
2006,02,01,04,05,28.50
2006,02,01,04,06,23.70
2006,02,01,04,07,19.50
2006,02,01,04,08,21.20
2006,02,01,04,09,22.30
2006,02,01,04,10,24.90
2006,02,01,04,11,29.10
2006,02,01,04,12,20.90
2006,02,01,04,13,16.50
2006,02,01,04,14,19.00
2006,02,01,04,15,21.20
2006,02,01,04,16,21.10
2006,02,01,04,17,19.20
2006,02,01,04,18,19.70
2006,02,01,04,19,19.10
2006,02,01,04,20,17.70
2006,02,01,04,21,26.10
2006,02,01,04,22,30.60
2006,02,01,04,23,19.80
2006,02,01,04,24,15.00
2006,02,01,04,25,22.60
2006,02,01,04,26,19.20
2006,02,01,04,27,22.40
2006,02,01,04,28,31.00
2006,02,01,04,29,28.00
2006,02,01,04,30,24.20
2006,02,01,04,31,24.90
2006,02,01,04,32,28.90
2006,02,01,04,33,38.90
2006,02,01,04,34,36.90
2006,02,01,04,35,24.20
2006,02,01,04,36,18.90
2006,02,01,04,37,20.90
2006,02,01,04,38,23.80
2006,02,01,04,39,23.40
2006,02,01,04,40,11.90
2006,02,01,04,41,27.60
2006,02,01,04,42,23.00
2006,02,01,04,43,28.60
2006,02,01,04,44,31.90
2006,02,01,04,45,34.00
2006,02,01,04,46,27.60
2006,02,01,04,47,35.40
2006,02,01,04,48,28.00
2006,02,01,04,49,27.50
2006,02,01,04,50,28.20
2006,02,01,04,51,29.30
2006,02,01,04,52,25.10
2006,02,01,04,53,26.80
2006,02,01,04,54,39.30
2006,02,01,04,55,38.00
2006,02,01,04,56,32.90
2006,02,01,04,57,27.50
2006,02,01,04,58,25.20
2006,02,01,04,59,30.40
2006,02,01,05,00,32.50
2006,02,01,05,01,22.90
2006,02,01,05,02,22.50
2006,02,01,05,03,28.20
2006,02,01,05,04,21.60
2006,02,01,05,05,37.80
2006,02,01,05,06,31.00
2006,02,01,05,07,34.90
2006,02,01,05,08,37.70
2006,02,01,05,09,32.30
2006,02,01,05,10,35.40
2006,02,01,05,11,32.70
2006,02,01,05,12,42.20
2006,02,01,05,13,35.80
2006,02,01,05,14,29.00
2006,02,01,05,15,26.50
2006,02,01,05,16,37.00
2006,02,01,05,17,33.30
2006,02,01,05,18,30.20
2006,02,01,05,19,38.00
2006,02,01,05,20,34.40
2006,02,01,05,21,36.10
2006,02,01,05,22,43.00
2006,02,01,05,23,44.80
2006,02,01,05,24,62.70
2006,02,01,05,25,41.30
2006,02,01,05,26,45.70
2006,02,01,05,27,43.30
2006,02,01,05,28,50.10
2006,02,01,05,29,52.90
2006,02,01,05,30,41.80
2006,02,01,05,31,36.60
2006,02,01,05,32,42.90
2006,02,01,05,33,37.90
2006,02,01,05,34,41.80
2006,02,01,05,35,43.70
2006,02,01,05,36,47.50
2006,02,01,05,37,38.10
2006,02,01,05,38,47.30
2006,02,01,05,39,42.30
2006,02,01,05,40,27.80
2006,02,01,05,41,35.20
2006,02,01,05,42,36.00
2006,02,01,05,43,42.20
2006,02,01,05,44,36.20
2006,02,01,05,45,34.00
2006,02,01,05,46,41.90
2006,02,01,05,47,41.00
2006,02,01,05,48,42.30
2006,02,01,05,49,43.30
2006,02,01,05,50,37.00
2006,02,01,05,51,36.80
2006,02,01,05,52,36.20
2006,02,01,05,53,29.00
2006,02,01,05,54,40.60
2006,02,01,05,55,29.10
2006,02,01,05,56,33.60
2006,02,01,05,57,36.90
2006,02,01,05,58,41.90
2006,02,01,05,59,42.90
2006,02,01,06,00,43.00
2006,02,01,06,01,37.70
2006,02,01,06,02,36.30
2006,02,01,06,03,29.90
2006,02,01,06,04,36.40
2006,02,01,06,05,29.30
2006,02,01,06,06,33.00
2006,02,01,06,07,34.00
2006,02,01,06,08,27.40
2006,02,01,06,09,40.90
2006,02,01,06,10,42.60
2006,02,01,06,11,37.20
2006,02,01,06,12,30.00
2006,02,01,06,13,26.90
2006,02,01,06,14,33.40
2006,02,01,06,15,39.30
2006,02,01,06,16,32.30
2006,02,01,06,17,31.50
2006,02,01,06,18,36.80
2006,02,01,06,19,43.90
2006,02,01,06,20,39.30
2006,02,01,06,21,36.40
2006,02,01,06,22,36.60
2006,02,01,06,23,39.70
2006,02,01,06,24,38.90
2006,02,01,06,25,31.10
2006,02,01,06,26,27.40
2006,02,01,06,27,33.10
2006,02,01,06,28,41.70
2006,02,01,06,29,32.80
2006,02,01,06,30,44.60
2006,02,01,06,31,43.90
2006,02,01,06,32,40.30
2006,02,01,06,33,37.30
2006,02,01,06,34,32.30
2006,02,01,06,35,36.40
2006,02,01,06,36,39.40
2006,02,01,06,37,45.10
2006,02,01,06,38,33.50
2006,02,01,06,39,41.60
2006,02,01,06,40,34.30
2006,02,01,06,41,33.10
2006,02,01,06,42,29.40
2006,02,01,06,43,42.60
2006,02,01,06,44,31.50
2006,02,01,06,45,38.70
2006,02,01,06,46,30.70
2006,02,01,06,47,34.50
2006,02,01,06,48,35.00
2006,02,01,06,49,28.60
2006,02,01,06,50,40.70
2006,02,01,06,51,44.30
2006,02,01,06,52,28.60
2006,02,01,06,53,34.10
2006,02,01,06,54,34.40
2006,02,01,06,55,37.10
2006,02,01,06,56,27.20
2006,02,01,06,57,39.30
2006,02,01,06,58,41.70
2006,02,01,06,59,35.60
2006,02,01,07,00,32.00
2006,02,01,07,01,27.30
2006,02,01,07,02,40.20
2006,02,01,07,03,34.60
2006,02,01,07,04,34.90
2006,02,01,07,05,33.90
2006,02,01,07,06,27.00
2006,02,01,07,07,38.50
2006,02,01,07,08,30.90
2006,02,01,07,09,25.40
2006,02,01,07,10,26.60
2006,02,01,07,11,38.20
2006,02,01,07,12,33.50
2006,02,01,07,13,27.80
2006,02,01,07,14,31.60
2006,02,01,07,15,33.50
2006,02,01,07,16,28.50
2006,02,01,07,17,34.00
2006,02,01,07,18,39.00
2006,02,01,07,19,33.10
2006,02,01,07,20,32.50
2006,02,01,07,21,32.70
2006,02,01,07,22,40.30
2006,02,01,07,23,48.30
2006,02,01,07,24,38.10
2006,02,01,07,25,31.90
2006,02,01,07,26,28.30
2006,02,01,07,27,30.10
2006,02,01,07,28,30.40
2006,02,01,07,29,32.00
2006,02,01,07,30,27.90
2006,02,01,07,31,22.70
2006,02,01,07,32,26.40
2006,02,01,07,33,23.70
2006,02,01,07,34,24.10
2006,02,01,07,35,21.40
2006,02,01,07,36,21.80
2006,02,01,07,37,21.50
2006,02,01,07,38,25.40
2006,02,01,07,39,27.50
2006,02,01,07,40,21.00
2006,02,01,07,41,22.60
2006,02,01,07,42,26.30
2006,02,01,07,43,33.70
2006,02,01,07,44,34.90
2006,02,01,07,45,26.60
2006,02,01,07,46,21.30
2006,02,01,07,47,22.30
2006,02,01,07,48,20.20
2006,02,01,07,49,25.80
2006,02,01,07,50,20.60
2006,02,01,07,51,20.90
2006,02,01,07,52,19.40
2006,02,01,07,53,22.40
2006,02,01,07,54,23.60
2006,02,01,07,55,25.00
2006,02,01,07,56,26.50
2006,02,01,07,57,24.90
2006,02,01,07,58,25.50
2006,02,01,07,59,27.40
2006,02,01,08,00,19.60
2006,02,01,08,01,18.00
2006,02,01,08,02,9.60
2006,02,01,08,03,20.10
2006,02,01,08,04,23.80
2006,02,01,08,05,20.00
2006,02,01,08,06,19.80
2006,02,01,08,07,18.00
2006,02,01,08,08,14.30
2006,02,01,08,09,15.00
2006,02,01,08,10,17.60
2006,02,01,08,11,14.80
2006,02,01,08,12,15.90
2006,02,01,08,13,6.10
2006,02,01,08,14,15.00
2006,02,01,08,15,9.80
2006,02,01,08,16,13.70
2006,02,01,08,17,16.40
2006,02,01,08,18,9.50
2006,02,01,08,19,6.40
2006,02,01,08,20,7.60
2006,02,01,08,21,7.40
2006,02,01,08,22,9.20
2006,02,01,08,23,6.50
2006,02,01,08,24,2.60
2006,02,01,08,25,2.30
2006,02,01,08,26,1.80
2006,02,01,08,27,4.00
2006,02,01,08,28,2.50
2006,02,01,08,29,2.80
2006,02,01,08,30,9.90
2006,02,01,08,31,13.50
2006,02,01,08,32,22.90
2006,02,01,08,33,24.60
2006,02,01,08,34,22.70
2006,02,01,08,35,12.20
2006,02,01,08,36,14.70
2006,02,01,08,37,15.20
2006,02,01,08,38,10.50
2006,02,01,08,39,12.80
2006,02,01,08,40,7.80
2006,02,01,08,41,9.30
2006,02,01,08,42,4.00
2006,02,01,08,43,5.90
2006,02,01,08,44,6.40
2006,02,01,08,45,3.10
2006,02,01,08,46,2.60
2006,02,01,08,47,2.60
2006,02,01,08,48,0.40
2006,02,01,08,49,4.30
2006,02,01,08,50,4.80
2006,02,01,08,51,1.20
2006,02,01,08,52,1.50
2006,02,01,08,53,2.90
2006,02,01,08,54,2.30
2006,02,01,08,55,0.60
2006,02,01,08,56,2.60
2006,02,01,08,57,4.60
2006,02,01,08,58,0.60
2006,02,01,08,59,0.00
2006,02,01,09,00,0.20
2006,02,01,09,01,2.10
2006,02,01,09,02,0.00
2006,02,01,09,03,0.00
2006,02,01,09,04,0.00
2006,02,01,09,05,2.90
2006,02,01,09,06,8.40
2006,02,01,09,07,6.50
2006,02,01,09,08,4.40
2006,02,01,09,09,3.90
2006,02,01,09,10,4.50
2006,02,01,09,11,5.40
2006,02,01,09,12,8.90
2006,02,01,09,13,4.70
2006,02,01,09,14,5.30
2006,02,01,09,15,1.80
2006,02,01,09,16,1.10
2006,02,01,09,17,2.00
2006,02,01,09,18,5.00
2006,02,01,09,19,3.10
2006,02,01,09,20,4.30
2006,02,01,09,21,3.70
2006,02,01,09,22,5.80
2006,02,01,09,23,4.70
2006,02,01,09,24,1.50
2006,02,01,09,25,1.40
2006,02,01,09,26,1.00
2006,02,01,09,27,2.20
2006,02,01,09,28,3.60
2006,02,01,09,29,4.00
2006,02,01,09,30,3.40
2006,02,01,09,31,6.00
2006,02,01,09,32,6.50
2006,02,01,09,33,6.10
2006,02,01,09,34,6.60
2006,02,01,09,35,6.40
2006,02,01,09,36,6.00
2006,02,01,09,37,3.90
2006,02,01,09,38,3.10
2006,02,01,09,39,3.10
2006,02,01,09,40,6.90
2006,02,01,09,41,3.90
2006,02,01,09,42,7.60
2006,02,01,09,43,5.50
2006,02,01,09,44,3.00
2006,02,01,09,45,5.40
2006,02,01,09,46,6.80
2006,02,01,09,47,8.00
2006,02,01,09,48,7.40
2006,02,01,09,49,3.10
2006,02,01,09,50,4.50
2006,02,01,09,51,2.10
2006,02,01,09,52,5.30
2006,02,01,09,53,11.30
2006,02,01,09,54,6.90
2006,02,01,09,55,4.80
2006,02,01,09,56,5.20
2006,02,01,09,57,4.60
2006,02,01,09,58,1.80
2006,02,01,09,59,1.90
2006,02,01,10,00,3.60
2006,02,01,10,01,2.30
2006,02,01,10,02,3.20
2006,02,01,10,03,3.90
2006,02,01,10,04,5.00
2006,02,01,10,05,4.10
2006,02,01,10,06,2.80
2006,02,01,10,07,5.20
2006,02,01,10,08,4.80
2006,02,01,10,09,6.10
2006,02,01,10,10,6.40
2006,02,01,10,11,5.80
2006,02,01,10,12,7.20
2006,02,01,10,13,9.60
2006,02,01,10,14,8.60
2006,02,01,10,15,7.40
2006,02,01,10,16,4.10
2006,02,01,10,17,4.70
2006,02,01,10,18,6.10
2006,02,01,10,19,11.40
2006,02,01,10,20,11.10
2006,02,01,10,21,12.10
2006,02,01,10,22,18.00
2006,02,01,10,23,13.00
2006,02,01,10,24,14.40
2006,02,01,10,25,9.80
2006,02,01,10,26,5.50
2006,02,01,10,27,5.70
2006,02,01,10,28,7.20
2006,02,01,10,29,7.60
2006,02,01,10,30,6.30
2006,02,01,10,31,9.30
2006,02,01,10,32,12.00
2006,02,01,10,33,12.50
2006,02,01,10,34,13.80
2006,02,01,10,35,7.20
2006,02,01,10,36,7.60
2006,02,01,10,37,6.40
2006,02,01,10,38,3.30
2006,02,01,10,39,4.10
2006,02,01,10,40,5.80
2006,02,01,10,41,3.50
2006,02,01,10,42,10.20
2006,02,01,10,43,8.50
2006,02,01,10,44,6.80
2006,02,01,10,45,8.30
2006,02,01,10,46,9.20
2006,02,01,10,47,9.50
2006,02,01,10,48,10.40
2006,02,01,10,49,7.10
2006,02,01,10,50,6.00
2006,02,01,10,51,9.10
2006,02,01,10,52,15.00
2006,02,01,10,53,9.30
2006,02,01,10,54,8.40
2006,02,01,10,55,6.50
2006,02,01,10,56,12.70
2006,02,01,10,57,13.50
2006,02,01,10,58,12.10
2006,02,01,10,59,8.50
2006,02,01,11,00,9.70
2006,02,01,11,01,7.60
2006,02,01,11,02,11.00
2006,02,01,11,03,15.20
2006,02,01,11,04,11.40
2006,02,01,11,05,9.10
2006,02,01,11,06,9.60
2006,02,01,11,07,11.80
2006,02,01,11,08,12.50
2006,02,01,11,09,7.20
2006,02,01,11,10,6.00
2006,02,01,11,11,7.20
2006,02,01,11,12,8.50
2006,02,01,11,13,9.30
2006,02,01,11,14,8.90
2006,02,01,11,15,8.90
2006,02,01,11,16,7.30
2006,02,01,11,17,9.30
2006,02,01,11,18,12.00
2006,02,01,11,19,10.00
2006,02,01,11,20,9.70
2006,02,01,11,21,8.20
2006,02,01,11,22,12.30
2006,02,01,11,23,11.20
2006,02,01,11,24,10.20
2006,02,01,11,25,12.20
2006,02,01,11,26,9.20
2006,02,01,11,27,11.60
2006,02,01,11,28,9.90
2006,02,01,11,29,13.00
2006,02,01,11,30,15.60
2006,02,01,11,31,11.30
2006,02,01,11,32,10.00
2006,02,01,11,33,13.00
2006,02,01,11,34,8.40
2006,02,01,11,35,13.00
2006,02,01,11,36,8.50
2006,02,01,11,37,11.90
2006,02,01,11,38,17.90
2006,02,01,11,39,16.80
2006,02,01,11,40,13.60
2006,02,01,11,41,11.50
2006,02,01,11,42,11.90
2006,02,01,11,43,16.70
2006,02,01,11,44,14.30
2006,02,01,11,45,10.70
2006,02,01,11,46,10.30
2006,02,01,11,47,13.00
2006,02,01,11,48,14.90
2006,02,01,11,49,12.80
2006,02,01,11,50,9.20
2006,02,01,11,51,8.10
2006,02,01,11,52,13.60
2006,02,01,11,53,16.00
2006,02,01,11,54,14.70
2006,02,01,11,55,11.50
2006,02,01,11,56,14.10
2006,02,01,11,57,14.10
2006,02,01,11,58,15.00
2006,02,01,11,59,17.40
2006,02,01,12,00,20.90
2006,02,01,12,01,16.40
2006,02,01,12,02,16.10
2006,02,01,12,03,14.00
2006,02,01,12,04,19.10
2006,02,01,12,05,15.60
2006,02,01,12,06,12.30
2006,02,01,12,07,13.60
2006,02,01,12,08,11.20
2006,02,01,12,09,14.00
2006,02,01,12,10,14.20
2006,02,01,12,11,11.70
2006,02,01,12,12,13.30
2006,02,01,12,13,9.30
2006,02,01,12,14,8.10
2006,02,01,12,15,8.10
2006,02,01,12,16,10.90
2006,02,01,12,17,8.00
2006,02,01,12,18,9.30
2006,02,01,12,19,12.70
2006,02,01,12,20,14.10
2006,02,01,12,21,8.10
2006,02,01,12,22,10.80
2006,02,01,12,23,12.00
2006,02,01,12,24,11.30
2006,02,01,12,25,8.60
2006,02,01,12,26,15.40
2006,02,01,12,27,12.90
2006,02,01,12,28,8.30
2006,02,01,12,29,10.00
2006,02,01,12,30,11.30
2006,02,01,12,31,7.10
2006,02,01,12,32,7.90
2006,02,01,12,33,9.30
2006,02,01,12,34,8.50
2006,02,01,12,35,8.10
2006,02,01,12,36,11.10
2006,02,01,12,37,13.10
2006,02,01,12,38,12.10
2006,02,01,12,39,12.50
2006,02,01,12,40,7.50
2006,02,01,12,41,7.90
2006,02,01,12,42,7.20
2006,02,01,12,43,4.80
2006,02,01,12,44,5.60
2006,02,01,12,45,6.10
2006,02,01,12,46,3.70
2006,02,01,12,47,3.90
2006,02,01,12,48,4.30
2006,02,01,12,49,4.20
2006,02,01,12,50,4.90
2006,02,01,12,51,3.60
2006,02,01,12,52,4.10
2006,02,01,12,53,4.80
2006,02,01,12,54,6.10
2006,02,01,12,55,6.90
2006,02,01,12,56,6.80
2006,02,01,12,57,6.70
2006,02,01,12,58,4.40
2006,02,01,12,59,4.70
2006,02,01,13,00,1.60
2006,02,01,13,01,2.50
2006,02,01,13,02,6.10
2006,02,01,13,03,3.30
2006,02,01,13,04,3.00
2006,02,01,13,05,4.30
2006,02,01,13,06,2.70
2006,02,01,13,07,3.20
2006,02,01,13,08,2.30
2006,02,01,13,09,3.60
2006,02,01,13,10,3.60
2006,02,01,13,11,3.70
2006,02,01,13,12,4.20
2006,02,01,13,13,2.50
2006,02,01,13,14,3.70
2006,02,01,13,15,3.80
2006,02,01,13,16,2.90
2006,02,01,13,17,3.50
2006,02,01,13,18,2.80
2006,02,01,13,19,3.80
2006,02,01,13,20,4.50
2006,02,01,13,21,4.00
2006,02,01,13,22,4.90
2006,02,01,13,23,3.00
2006,02,01,13,24,3.80
2006,02,01,13,25,4.30
2006,02,01,13,26,4.10
2006,02,01,13,27,5.10
2006,02,01,13,28,4.70
2006,02,01,13,29,7.50
2006,02,01,13,30,5.00
2006,02,01,13,31,3.90
2006,02,01,13,32,6.10
2006,02,01,13,33,5.40
2006,02,01,13,34,5.50
2006,02,01,13,35,6.40
2006,02,01,13,36,4.60
2006,02,01,13,37,2.80
2006,02,01,13,38,2.20
2006,02,01,13,39,2.60
2006,02,01,13,40,2.40
2006,02,01,13,41,3.90
2006,02,01,13,42,4.10
2006,02,01,13,43,4.20
2006,02,01,13,44,6.10
2006,02,01,13,45,5.80
2006,02,01,13,46,4.90
2006,02,01,13,47,2.60
2006,02,01,13,48,3.10
2006,02,01,13,49,5.50
2006,02,01,13,50,6.90
2006,02,01,13,51,5.30
2006,02,01,13,52,4.30
2006,02,01,13,53,3.40
2006,02,01,13,54,4.00
2006,02,01,13,55,5.50
2006,02,01,13,56,5.60
2006,02,01,13,57,5.80
2006,02,01,13,58,5.20
2006,02,01,13,59,5.80
2006,02,01,14,00,6.40
2006,02,01,14,01,6.40
2006,02,01,14,02,3.50
2006,02,01,14,03,6.20
2006,02,01,14,04,7.20
2006,02,01,14,05,6.60
2006,02,01,14,06,5.60
2006,02,01,14,07,4.50
2006,02,01,14,08,3.40
2006,02,01,14,09,5.20
2006,02,01,14,10,5.20
2006,02,01,14,11,6.40
2006,02,01,14,12,5.20
2006,02,01,14,13,4.80
2006,02,01,14,14,7.10
2006,02,01,14,15,2.80
2006,02,01,14,16,4.10
2006,02,01,14,17,4.00
2006,02,01,14,18,3.80
2006,02,01,14,19,5.00
2006,02,01,14,20,6.70
2006,02,01,14,21,6.20
2006,02,01,14,22,4.60
2006,02,01,14,23,4.80
2006,02,01,14,24,4.10
2006,02,01,14,25,4.10
2006,02,01,14,26,3.50
2006,02,01,14,27,5.80
2006,02,01,14,28,5.90
2006,02,01,14,29,5.70
2006,02,01,14,30,2.80
2006,02,01,14,31,3.50
2006,02,01,14,32,3.90
2006,02,01,14,33,3.50
2006,02,01,14,34,4.90
2006,02,01,14,35,4.70
2006,02,01,14,36,2.40
2006,02,01,14,37,4.80
2006,02,01,14,38,4.80
2006,02,01,14,39,5.00
2006,02,01,14,40,5.30
2006,02,01,14,41,5.80
2006,02,01,14,42,4.40
2006,02,01,14,43,7.30
2006,02,01,14,44,3.90
2006,02,01,14,45,5.40
2006,02,01,14,46,4.80
2006,02,01,14,47,4.60
2006,02,01,14,48,4.80
2006,02,01,14,49,8.00
2006,02,01,14,50,7.00
2006,02,01,14,51,5.30
2006,02,01,14,52,2.40
2006,02,01,14,53,1.30
2006,02,01,14,54,3.60
2006,02,01,14,55,3.50
2006,02,01,14,56,3.10
2006,02,01,14,57,1.30
2006,02,01,14,58,2.40
2006,02,01,14,59,4.50
2006,02,01,15,00,3.00
2006,02,01,15,01,4.70
2006,02,01,15,02,4.30
2006,02,01,15,03,3.90
2006,02,01,15,04,7.80
2006,02,01,15,05,6.80
2006,02,01,15,06,5.10
2006,02,01,15,07,3.40
2006,02,01,15,08,3.30
2006,02,01,15,09,2.50
2006,02,01,15,10,2.30
2006,02,01,15,11,4.40
2006,02,01,15,12,4.00
2006,02,01,15,13,3.50
2006,02,01,15,14,2.50
2006,02,01,15,15,0.60
2006,02,01,15,16,0.80
2006,02,01,15,17,0.00
2006,02,01,15,18,0.00
2006,02,01,15,19,0.80
2006,02,01,15,20,0.30
2006,02,01,15,21,0.00
2006,02,01,15,22,0.00
2006,02,01,15,23,0.00
2006,02,01,15,24,0.00
2006,02,01,15,25,0.40
2006,02,01,15,26,2.30
2006,02,01,15,27,3.80
2006,02,01,15,28,2.60
2006,02,01,15,29,2.80
2006,02,01,15,30,1.80
2006,02,01,15,31,1.80
2006,02,01,15,32,1.50
2006,02,01,15,33,3.40
2006,02,01,15,34,6.00
2006,02,01,15,35,6.30
2006,02,01,15,36,8.10
2006,02,01,15,37,6.80
2006,02,01,15,38,4.50
2006,02,01,15,39,3.30
2006,02,01,15,40,4.20
2006,02,01,15,41,2.60
2006,02,01,15,42,2.40
2006,02,01,15,43,2.80
2006,02,01,15,44,2.30
2006,02,01,15,45,3.40
2006,02,01,15,46,3.20
2006,02,01,15,47,3.50
2006,02,01,15,48,4.10
2006,02,01,15,49,2.60
2006,02,01,15,50,1.40
2006,02,01,15,51,0.80
2006,02,01,15,52,0.10
2006,02,01,15,53,0.00
2006,02,01,15,54,0.00
2006,02,01,15,55,0.00
2006,02,01,15,56,0.00
2006,02,01,15,57,0.00
2006,02,01,15,58,0.00
2006,02,01,15,59,0.60
2006,02,01,16,00,3.90
2006,02,01,16,01,2.60
2006,02,01,16,02,0.40
2006,02,01,16,03,0.00
2006,02,01,16,04,0.00
2006,02,01,16,05,0.00
2006,02,01,16,06,0.00
2006,02,01,16,07,0.00
2006,02,01,16,08,0.00
2006,02,01,16,09,1.00
2006,02,01,16,10,2.60
2006,02,01,16,11,2.00
2006,02,01,16,12,0.90
2006,02,01,16,13,0.50
2006,02,01,16,14,0.00
2006,02,01,16,15,0.00
2006,02,01,16,16,0.00
2006,02,01,16,17,0.00
2006,02,01,16,18,0.90
2006,02,01,16,19,1.50
2006,02,01,16,20,1.20
2006,02,01,16,21,0.90
2006,02,01,16,22,0.10
2006,02,01,16,23,0.00
2006,02,01,16,24,0.00
2006,02,01,16,25,0.00
2006,02,01,16,26,0.90
2006,02,01,16,27,2.70
2006,02,01,16,28,4.20
2006,02,01,16,29,4.70
2006,02,01,16,30,3.30
2006,02,01,16,31,2.10
2006,02,01,16,32,2.00
2006,02,01,16,33,1.80
2006,02,01,16,34,0.90
2006,02,01,16,35,1.50
2006,02,01,16,36,4.80
2006,02,01,16,37,6.40
2006,02,01,16,38,8.00
2006,02,01,16,39,4.10
2006,02,01,16,40,6.60
2006,02,01,16,41,2.30
2006,02,01,16,42,1.10
2006,02,01,16,43,2.30
2006,02,01,16,44,4.20
2006,02,01,16,45,5.10
2006,02,01,16,46,5.60
2006,02,01,16,47,6.50
2006,02,01,16,48,5.90
2006,02,01,16,49,5.20
2006,02,01,16,50,9.40
2006,02,01,16,51,8.50
2006,02,01,16,52,6.40
2006,02,01,16,53,4.80
2006,02,01,16,54,8.30
2006,02,01,16,55,9.80
2006,02,01,16,56,8.00
2006,02,01,16,57,5.90
2006,02,01,16,58,6.00
2006,02,01,16,59,4.70
2006,02,01,17,00,2.10
2006,02,01,17,01,1.20
2006,02,01,17,02,4.30
2006,02,01,17,03,3.50
2006,02,01,17,04,5.10
2006,02,01,17,05,7.00
2006,02,01,17,06,3.00
2006,02,01,17,07,4.80
2006,02,01,17,08,2.50
2006,02,01,17,09,1.70
2006,02,01,17,10,0.30
2006,02,01,17,11,0.00
2006,02,01,17,12,0.00
2006,02,01,17,13,0.00
2006,02,01,17,14,0.00
2006,02,01,17,15,0.00
2006,02,01,17,16,0.00
2006,02,01,17,17,0.00
2006,02,01,17,18,0.00
2006,02,01,17,19,0.00
2006,02,01,17,20,0.00
2006,02,01,17,21,0.30
2006,02,01,17,22,2.70
2006,02,01,17,23,3.10
2006,02,01,17,24,3.30
2006,02,01,17,25,1.90
2006,02,01,17,26,0.40
2006,02,01,17,27,0.00
2006,02,01,17,28,0.00
2006,02,01,17,29,0.00
2006,02,01,17,30,0.00
2006,02,01,17,31,0.00
2006,02,01,17,32,0.00
2006,02,01,17,33,2.50
2006,02,01,17,34,3.00
2006,02,01,17,35,2.50
2006,02,01,17,36,3.40
2006,02,01,17,37,1.30
2006,02,01,17,38,2.40
2006,02,01,17,39,1.90
2006,02,01,17,40,1.90